BEIDOU-3 M4

Last updated on Wed May 15 2019 03:07:46 GMT+0000 (Coordinated Universal Time)

1 43108U 18003B 19134.13404177 -.00000101 00000-0 00000+0 0 9995 2 43108 55.2362 31.3010 0003195 255.9821 219.3826 1.86232835 9108
UTC large
Height (km)
Speed (km/s)
/
Latitude / Longitude
Inclination (degrees)
Orbital Period (minutes)
Azimuth
Elevation
Range (km)
Doppler Factor

Next 0 passes for location: London (51.5072 / 0.1276)

Sorry there are no passes over London.